User: anonymous   Login
Location: Unspecified
(0.0000°N, 0.0000°E)
Time: 14:55:26
(UTC+02:00)
Language:

Delta 2 Rocket - Orbit

View from above orbital plane
View from above orbital plane
View from above satellite
View from above satellite

Ground track
Ground track

The orbit data is extracted from the following two-line orbital elements,

1 20453U 90008B   17118.57021738 +.00001167 +00000-0 +70423-4 0  9997
2 20453 035.6236 161.7651 0289363 115.6507 247.4393 14.83028779440834
Epoch (UTC): 28 April 2017 13:41:06
Eccentricity: 0.0289363
inclination: 35.6236°
perigee height: 417 km
apogee height: 822 km
right ascension of ascending node: 161.7651°
argument of perigee: 115.6507°
revolutions per day: 14.83028779
mean anomaly at epoch: 247.4393°
orbit number at epoch: 44083

The dashed part of the orbit path shows where the satellite is in the earth's shadow,  

DLR